Weather History for KSJT - November, 2013

Change the Weather History Date:

Monday, November 4, 2013

  Actual Average Record
Temperature  
Mean Temperature 64 °F 60 °F  
Max Temperature 71 °F 73 °F 88 °F (1987)
Min Temperature 56 °F 47 °F 21 °F (1991)
Degree Days  
Heating Degree Days 1 6  
Month to date heating degree days 30 24  
Since 1 July heating degree days 112 115  
Cooling Degree Days 0 1  
Month to date cooling degree days 0 5  
Year to date cooling degree days 2851 2489  
Growing Degree Days 11 (Base 50)    
Moisture  
Dew Point 52 °F    
Average Humidity 71    
Maximum Humidity 84    
Minimum Humidity 57    
Precipitation  
Precipitation 0.00 in 0.05 in 2.48 in (2014)
Month to date precipitation 0.05 0.22  
Year to date precipitation 17.89 19.48  
Snow  
Snow 0.00 in 0.00 in 0.00 in (2002)
Month to date snowfall 0.0 0.0  
Since 1 July snowfall 0.0 0.0  
Snow Depth 0.00 in    
Sea Level Pressure  
Sea Level Pressure 29.94 in    
Wind  
Wind Speed 9 mph (South)    
Max Wind Speed 20 mph    
Max Gust Speed 24 mph    
Visibility 10 miles    
Events      
T = Trace of Precipitation, MM = Missing Value Source: NWS Daily Summary

Daily Weather History Graph

Daily Weather History Graph

Search for Another Location

Airport or City:

Trip Planner

Search our weather history database for the weather conditions in past years. The results will help you decide how hot, cold, wet, or windy it might be!

Date:

Astronomy

Nov. 04, 2013 Rise Set
Actual Time 7:00 AM CST 5:50 PM CST
Civil Twilight 6:35 AM CST 6:15 PM CST
Nautical Twilight 6:06 AM CST 6:44 PM CST
Astronomical Twilight 5:37 AM CST 7:12 PM CST
Moon 8:09 AM CST (11/4) 7:01 PM CST (11/4)
Length of Visible Light 11h 40m
Length of Day
10h 49m
New Moon, 2% of the Moon is Illuminated
Nov 4
New Moon
Nov 9
First Quarter
Nov 17
Full
Nov 25
Last Quarter
Dec 2
New

Hourly Weather History & Observations

Time (CST) Temp. Dew Point Humidity Pressure Visibility Wind Dir Wind Speed Gust Speed Precip Events Conditions
12:51 AM 57.9 °F 45.0 °F 62% 29.91 in 10.0 mi South 5.8 mph - N/A   Clear
1:51 AM 57.9 °F 46.0 °F 65% 29.92 in 10.0 mi South 11.5 mph - N/A   Clear
2:51 AM 57.9 °F 46.0 °F 65% 29.92 in 10.0 mi SSW 9.2 mph - N/A   Clear
3:51 AM 57.9 °F 46.0 °F 65% 29.92 in 10.0 mi South 4.6 mph - N/A   Clear
4:51 AM 57.0 °F 48.0 °F 72% 29.91 in 10.0 mi SSW 3.5 mph - N/A   Clear
5:51 AM 57.0 °F 48.9 °F 74% 29.94 in 10.0 mi SW 8.1 mph - N/A   Clear
6:51 AM 57.0 °F 50.0 °F 77% 29.94 in 10.0 mi SSW 9.2 mph - N/A   Clear
7:51 AM 57.9 °F 50.0 °F 75% 29.95 in 10.0 mi South 10.4 mph - N/A   Clear
8:51 AM 59.0 °F 51.1 °F 75% 29.97 in 10.0 mi South 13.8 mph 19.6 mph N/A   Clear
9:51 AM 60.1 °F 52.0 °F 75% 29.99 in 10.0 mi South 13.8 mph 21.9 mph N/A   Clear
10:51 AM 62.1 °F 52.0 °F 70% 29.99 in 10.0 mi South 13.8 mph 20.7 mph N/A   Clear
11:16 AM 62.6 °F 53.6 °F 72% 30.01 in 10.0 mi SSW 12.7 mph - N/A   Mostly Cloudy
11:51 AM 64.9 °F 54.0 °F 68% 29.97 in 10.0 mi SSW 8.1 mph 17.3 mph N/A   Mostly Cloudy
12:38 PM 66.2 °F 53.6 °F 64% 29.99 in 10.0 mi South 12.7 mph 20.7 mph N/A   Scattered Clouds
12:51 PM 68.0 °F 55.0 °F 63% 29.94 in 10.0 mi SSW 15.0 mph 19.6 mph N/A   Mostly Cloudy
1:51 PM 69.1 °F 54.0 °F 58% 29.91 in 10.0 mi South 13.8 mph 19.6 mph N/A   Mostly Cloudy
2:51 PM 69.1 °F 54.0 °F 58% 29.91 in 10.0 mi South 5.8 mph - N/A   Overcast
3:51 PM 70.0 °F 53.1 °F 55% 29.89 in 10.0 mi South 8.1 mph - N/A   Overcast
4:51 PM 70.0 °F 53.1 °F 55% 29.90 in 10.0 mi SSE 11.5 mph - N/A   Overcast
5:51 PM 66.9 °F 52.0 °F 59% 29.91 in 10.0 mi SSE 10.4 mph - N/A   Overcast
6:51 PM 64.9 °F 53.1 °F 65% 29.93 in 10.0 mi SE 6.9 mph - N/A   Overcast
7:51 PM 63.0 °F 52.0 °F 67% 29.96 in 10.0 mi SE 8.1 mph - N/A   Overcast
8:51 PM 62.1 °F 53.1 °F 72% 29.97 in 10.0 mi SSE 8.1 mph - N/A   Mostly Cloudy
9:51 PM 61.0 °F 54.0 °F 78% 29.97 in 10.0 mi ESE 5.8 mph - N/A   Mostly Cloudy
10:51 PM 60.1 °F 55.0 °F 83% 29.96 in 10.0 mi ESE 6.9 mph - N/A   Overcast
11:51 PM 57.0 °F 54.0 °F 89% 29.95 in 10.0 mi ESE 4.6 mph - N/A   Mostly Cloudy